Simultaneous Nadir Overpasses (SNOs) Predictions

Prediction of SNOs near equator between NOAA-19 and NPP Satellite Orbit:

Table of predicted SNOs near equator for the next 14.0 days since TLE Epoch: 7/13/2012
Index Date (NOAA-19) Time (NOAA-19) NOAA-19 Lat,Lon Date (NPP) Time (NPP) NPP Lat,Lon Distance(km) Time Diff (sec)
1 07/16/2012 11:09:13 -29.95,-149.24 07/16/2012 11:04:07 -29.77,-150.21 95.94 306
2 07/16/2012 12:00:14 29.96, 18.01 07/16/2012 11:54:56 29.81, 17.08 91.12 318
3 07/16/2012 12:51:19 -30.00,-174.77 07/16/2012 12:45:38 -29.83,-175.60 82.09 341
4 07/16/2012 13:42:19 29.95, -7.51 07/16/2012 13:36:26 29.81, -8.30 77.32 353
5 07/16/2012 14:33:24 -29.99, 159.71 07/16/2012 14:27:08 -29.84, 159.02 68.34 376
6 07/16/2012 15:24:24 29.94, -33.03 07/16/2012 15:17:56 29.82, -33.67 63.54 388
7 07/16/2012 16:15:29 -29.98, 134.19 07/16/2012 16:08:38 -29.84, 133.65 54.63 411
8 07/16/2012 17:06:30 29.99, -58.56 07/16/2012 16:59:27 29.88, -59.06 49.74 423
9 07/16/2012 17:57:34 -29.97, 108.67 07/16/2012 17:50:09 -29.91, 108.26 40.91 445
10 07/16/2012 18:48:35 29.98, -84.08 07/16/2012 18:40:57 29.88, -84.44 36.07 458
11 07/16/2012 19:39:39 -29.96, 83.16 07/16/2012 19:31:39 -29.91, 82.88 27.09 480
12 07/16/2012 20:30:40 29.97,-109.60 07/16/2012 20:22:28 29.95,-109.83 22.38 492
13 07/16/2012 21:21:44 -29.95, 57.64 07/16/2012 21:13:09 -29.92, 57.50 13.32 515
14 07/16/2012 22:12:45 29.96,-135.12 07/16/2012 22:03:58 29.95,-135.21 8.55 527
15 07/16/2012 23:03:50 -29.99, 32.10 07/16/2012 22:54:40 -29.98, 32.11
